Location: Wanzleben
(52.0609°N, 11.4408°E)
Time: 10:59:38
(UTC+00:00)

SL-08 RB Rocket - Pass Details

Date: 18 September 2020
Orbit: 646 x 684 km, 97.8° (Epoch: 25 October)

Event Time Altitude Azimuth Distance (km) Brightness Sun altitude
Rises 17:55:23 0° 143° (SE) 3,018 6.6 -6.1°
Reaches altitude 10° 17:57:42 10° 137° (SE) 2,103 5.8 -6.4°
Maximum altitude 18:02:00 41° 67° (ENE) 965 4.2 -7.1°
Drops below altitude 10° 18:06:18 10° 358° (N) 2,094 6.5 -7.7°
Sets 18:08:37 0° 351° (N) 3,005 7.4 -8.0°
